Wind_Speed
30 42 32 33 27 24 15 15 12 8 7 3 8 13 14 13 13 14 13 12 12 12 12 15 16 15 14 13 12 10 10 10 10
17 37 34 31 29 27 22 19 15 10 8 6 6 10 14 15 16 16 16 17 14 12 11 10 13 14 14 13 10 7 8 8 8
17 22 32 32 33 29 25 26 19 15 11 7 6 10 14 16 16 16 17 16 13 13 12 12 11 12 13 11 8 8 9 8 6
8 21 30 35 39 35 32 26 25 23 18 14 12 9 12 15 17 18 19 17 16 15 15 17 15 13 12 12 8 8 7 8 8
17 24 24 31 36 38 42 31 26 26 26 22 15 11 12 14 17 21 23 20 18 18 17 18 14 13 11 11 11 10 9 10 10
10 6 11 24 35 39 40 37 33 30 31 29 23 17 14 14 16 20 23 22 21 20 20 19 16 14 12 11 13 12 13 14 13
11 9 12 16 20 38 37 37 33 36 30 28 28 25 21 17 16 18 22 24 24 23 23 21 18 16 17 16 17 17 17 16 16
7 11 10 13 10 27 34 33 44 41 36 36 36 36 29 22 17 19 22 24 25 26 24 22 21 22 22 22 21 19 18 16 15
7 12 10 12 12 12 19 33 30 36 41 42 44 43 35 29 23 21 21 24 26 27 25 24 26 26 24 24 21 18 17 17 18
13 14 15 14 8 1 8 26 31 34 37 41 44 44 47 38 30 26 22 23 27 28 28 27 26 25 24 21 20 18 20 22 22
13 18 15 9 8 3 2 7 19 30 34 38 50 44 43 44 40 35 30 27 27 27 28 28 28 27 24 22 23 23 23 26 26
16 13 12 11 13 13 10 9 8 8 21 22 34 32 38 48 36 34 34 31 32 32 31 30 28 26 25 26 26 26 27 27 27
14 15 11 11 15 18 14 9 3 4 5 5 10 15 29 42 40 41 46 38 37 35 34 32 30 29 26 26 27 27 25 28 31
14 9 11 11 11 16 18 15 12 12 12 11 7 7 8 24 33 41 44 44 46 42 34 36 33 25 23 24 24 26 26 25 26
15 15 12 13 14 14 13 14 14 15 16 16 9 6 4 6 33 36 33 38 42 28 30 19 20 20 17 15 19 19 18 17 18
15 18 13 10 12 16 16 16 13 12 11 16 15 7 4 11 6 14 9 11 7 26 15 18 12 11 9 10 12 13 8 6 6
16 14 13 12 10 13 15 14 14 12 10 10 14 11 9 6 12 7 7 7 8 8 9 12 14 14 15 14 11 10 9 9 9
16 17 17 15 16 14 12 13 12 12 12 12 11 10 9 7 8 7 10 11 11 14 15 16 15 15 14 14 14 15 16 15 13
20 21 17 15 14 14 16 13 12 12 12 12 12 12 13 12 11 11 12 12 13 13 14 15 15 15 15 15 16 15 14 13 14
21 17 16 16 13 13 15 15 14 11 13 14 14 13 13 12 12 13 15 15 14 14 14 15 15 14 14 14 15 14 13 12 12
Wind_Direction
214 219 217 221 223 212 219 211 199 209 222 254 221 216 223 221 213 205 204 211 208 196 189 193 198 204 217 223 220 224 246 262 269
219 216 213 223 222 217 216 206 206 205 231 232 248 225 222 226 224 216 220 223 218 212 203 211 200 196 210 222 227 234 252 260 274
238 223 217 218 225 229 223 212 202 211 216 220 244 236 229 226 228 231 227 224 215 214 216 215 213 203 210 218 225 239 247 261 248
256 223 217 225 220 228 229 220 219 212 217 230 233 243 231 231 232 233 232 230 217 214 216 223 219 217 231 215 232 243 239 244 251
219 205 207 220 224 228 229 228 221 211 221 222 236 241 232 231 231 233 235 233 231 227 225 228 229 225 223 231 231 231 236 245 250
200 325 263 248 237 231 226 230 223 213 225 230 225 238 244 239 236 239 238 235 232 232 231 232 228 232 235 238 241 238 248 248 253
339 287 281 309 244 222 219 228 220 218 223 220 228 230 238 242 241 242 237 234 231 229 226 230 233 236 238 240 240 238 244 247 256
224 255 292 320 247 221 229 229 229 225 225 225 228 230 227 235 245 242 228 228 230 230 226 227 229 229 230 235 240 244 249 256 262
243 245 295 317 323 232 230 215 223 228 226 221 227 229 226 225 224 235 230 225 228 229 228 226 228 228 231 234 238 243 251 259 265
288 283 306 310 353 11 252 235 246 252 238 233 230 232 228 222 223 214 222 222 223 224 222 222 223 225 227 226 234 248 255 263 267
333 300 307 281 245 227 302 318 251 239 237 254 236 229 232 239 215 220 207 209 218 217 217 216 218 223 230 239 246 250 258 266 270
323 315 297 276 231 240 265 318 354 248 246 260 252 251 238 243 251 212 215 213 222 222 222 223 227 232 237 246 254 260 268 273 274
327 314 299 272 233 230 234 249 280 287 225 236 259 272 245 233 237 235 221 217 225 224 225 230 233 240 250 260 261 262 266 273 278
317 300 304 269 249 234 235 240 241 245 265 278 320 295 229 229 233 209 222 229 229 228 230 236 235 237 249 258 271 276 273 272 271
295 304 292 264 241 241 238 227 225 247 256 258 258 14 36 246 208 220 228 233 258 219 239 227 232 237 240 242 252 258 265 265 264
288 293 266 258 253 248 236 239 230 225 238 240 238 272 45 358 143 128 187 190 224 232 247 242 211 182 218 240 257 265 245 247 263
275 272 266 253 252 245 243 233 229 224 220 235 229 227 208 86 54 100 164 190 205 208 222 227 218 217 224 232 233 233 244 260 261
282 274 251 254 253 251 249 241 228 218 219 217 208 198 205 218 215 208 239 228 224 222 219 221 226 239 247 248 245 248 257 260 257
285 271 237 241 249 250 244 242 237 233 221 214 221 217 211 213 220 227 233 240 237 229 224 226 232 240 249 253 252 252 254 257 262
272 241 247 237 248 252 250 245 238 242 247 241 233 235 246 249 238 232 230 230 229 231 233 233 235 238 234 239 249 253 257 258 263
Height
3156 3161 3166 3171 3175 3180 3182 3185 3187 3190 3191 3193 3194 3196 3199 3200 3202 3204 3206 3207 3208 3210 3211 3213 3214 3216 3218 3219 3219 3220 3220 3220 3220
3153 3155 3161 3165 3170 3175 3180 3181 3184 3187 3190 3191 3192 3194 3195 3198 3201 3202 3205 3206 3207 3208 3209 3210 3212 3213 3215 3217 3217 3217 3218 3218 3217
3151 3153 3157 3161 3166 3169 3176 3179 3181 3184 3188 3190 3191 3192 3194 3196 3198 3201 3203 3205 3206 3207 3207 3209 3210 3212 3213 3214 3214 3215 3216 3216 3216
3146 3150 3153 3157 3160 3164 3169 3174 3177 3180 3184 3188 3189 3190 3191 3192 3195 3197 3200 3202 3205 3206 3207 3208 3209 3210 3211 3212 3212 3212 3213 3214 3215
3146 3145 3149 3153 3156 3159 3163 3167 3172 3174 3178 3183 3187 3188 3188 3190 3193 3195 3196 3199 3202 3204 3205 3206 3206 3207 3208 3209 3209 3210 3210 3211 3211
3141 3143 3145 3148 3149 3151 3156 3161 3165 3169 3173 3177 3183 3185 3186 3187 3188 3190 3192 3195 3197 3199 3201 3202 3202 3204 3206 3206 3207 3206 3207 3207 3207
3142 3144 3145 3143 3140 3143 3149 3156 3160 3164 3168 3171 3175 3180 3182 3183 3184 3186 3188 3191 3193 3194 3196 3198 3200 3201 3202 3202 3202 3202 3203 3203 3204
3140 3141 3141 3140 3135 3138 3144 3147 3154 3158 3162 3165 3169 3171 3175 3178 3179 3181 3183 3185 3188 3191 3192 3193 3195 3197 3198 3198 3198 3199 3200 3201 3202
3138 3137 3137 3136 3133 3133 3135 3141 3148 3151 3154 3157 3160 3165 3169 3171 3172 3175 3177 3180 3184 3186 3188 3190 3190 3191 3193 3194 3195 3196 3197 3198 3198
3139 3138 3137 3137 3134 3132 3134 3139 3138 3143 3143 3149 3152 3156 3158 3161 3166 3167 3170 3175 3178 3181 3182 3183 3185 3187 3188 3189 3190 3192 3193 3193 3192
3138 3135 3135 3135 3135 3135 3136 3135 3133 3132 3134 3140 3140 3148 3150 3153 3156 3161 3163 3167 3172 3175 3176 3177 3180 3181 3183 3184 3185 3186 3186 3187 3187
3135 3132 3129 3131 3132 3132 3132 3132 3129 3129 3129 3133 3132 3137 3143 3146 3143 3148 3159 3160 3166 3168 3171 3172 3174 3176 3176 3177 3177 3178 3179 3179 3179
3132 3130 3127 3127 3128 3129 3131 3134 3134 3134 3132 3133 3132 3130 3129 3130 3138 3141 3145 3150 3157 3161 3163 3165 3166 3169 3169 3170 3171 3171 3171 3171 3171
3130 3128 3127 3127 3126 3126 3128 3129 3133 3135 3133 3132 3130 3126 3124 3124 3128 3135 3140 3145 3147 3149 3153 3154 3157 3160 3162 3165 3165 3164 3163 3163 3164
3127 3126 3124 3124 3124 3124 3124 3127 3128 3130 3131 3131 3131 3128 3124 3122 3125 3130 3134 3137 3131 3134 3147 3137 3145 3153 3157 3158 3159 3159 3158 3158 3158
3122 3121 3122 3120 3120 3121 3122 3123 3124 3126 3126 3127 3129 3129 3127 3128 3128 3128 3133 3133 3132 3139 3139 3144 3146 3149 3151 3154 3155 3154 3153 3154 3154
3118 3116 3116 3118 3119 3119 3120 3120 3121 3122 3122 3123 3125 3127 3127 3129 3131 3132 3133 3136 3137 3139 3142 3145 3149 3150 3151 3152 3152 3152 3152 3152 3152
3114 3113 3112 3113 3116 3117 3118 3118 3118 3119 3121 3122 3123 3124 3126 3128 3130 3132 3133 3135 3137 3139 3142 3145 3146 3149 3150 3149 3149 3150 3150 3149 3149
3109 3109 3108 3109 3112 3114 3115 3116 3116 3118 3118 3120 3121 3123 3125 3127 3128 3130 3133 3134 3136 3137 3139 3141 3143 3145 3145 3146 3146 3146 3145 3145 3146
3104 3104 3105 3107 3108 3111 3112 3113 3114 3116 3117 3118 3120 3121 3122 3124 3126 3127 3129 3131 3133 3135 3136 3139 3139 3139 3140 3141 3142 3142 3142 3141 3141